| time (UTC) | temp F | wind direction | speed MPH | gust MPH | rain 1hr in | rain 24hr in | rain mn in | humidity % | barometer mb |
| 20260504023924 | 43 | 202 | 0.0 | 0.0 | 0.00 | 0.00 | 0.00 | 77 | 1007.9 |
| 20260504023641 | 43 | 201 | 0.0 | 0.0 | 0.00 | 0.00 | 0.00 | 76 | 1007.9 |
| 20260504022924 | 43 | 202 | 0.0 | 0.0 | 0.00 | 0.00 | 0.00 | 75 | 1007.9 |
| 20260504022421 | 43 | 202 | 0.0 | 0.0 | 0.00 | 0.00 | 0.00 | 75 | 1007.9 |
| 20260504022144 | 43 | 202 | 0.0 | 0.0 | 0.00 | 0.00 | 0.00 | 75 | 1007.9 |
| 20260504021419 | 43 | 202 | 0.0 | 0.0 | 0.00 | 0.00 | 0.00 | 76 | 1007.9 |
| 20260504020917 | 43 | 202 | 0.0 | 0.0 | 0.00 | 0.00 | 0.00 | 74 | 1007.9 |
| 20260504020415 | 43 | 202 | 0.0 | 0.0 | 0.00 | 0.00 | 0.00 | 74 | 1007.8 |
| 20260504015914 | 43 | 202 | 0.0 | 0.0 | 0.00 | 0.00 | 0.00 | 73 | 1007.8 |
| 20260504015411 | 44 | 202 | 0.0 | 0.0 | 0.00 | 0.00 | 0.00 | 73 | 1007.7 |
| 20260504014911 | 44 | 202 | 0.0 | 0.0 | 0.00 | 0.00 | 0.00 | 72 | 1007.7 |
| 20260504014414 | 44 | 202 | 0.0 | 0.0 | 0.00 | 0.00 | 0.00 | 70 | 1007.7 |
| 20260504013909 | 44 | 202 | 0.0 | 0.0 | 0.00 | 0.00 | 0.00 | 69 | 1007.7 |
| 20260504013407 | 44 | 202 | 0.0 | 0.0 | 0.00 | 0.00 | 0.00 | 69 | 1007.7 |
| 20260504012906 | 45 | 202 | 0.0 | 0.0 | 0.00 | 0.00 | 0.00 | 68 | 1007.7 |
| 20260504012628 | 45 | 202 | 0.0 | 0.0 | 0.00 | 0.00 | 0.00 | 67 | 1007.6 |
| 20260504012125 | 46 | 202 | 0.0 | 0.0 | 0.00 | 0.00 | 0.00 | 66 | 1007.6 |
| 20260504011400 | 46 | 202 | 0.0 | 0.0 | 0.00 | 0.00 | 0.00 | 66 | 1007.5 |
| 20260504010858 | 46 | 202 | 0.0 | 0.0 | 0.00 | 0.00 | 0.00 | 65 | 1007.5 |
| 20260504010355 | 47 | 202 | 0.0 | 0.0 | 0.00 | 0.00 | 0.00 | 64 | 1007.5 |
| 20260504005854 | 47 | 202 | 0.0 | 0.0 | 0.00 | 0.00 | 0.00 | 60 | 1007.5 |
| 20260504004844 | 48 | 202 | 0.0 | 0.0 | 0.00 | 0.00 | 0.00 | 58 | 1007.5 |
| 20260504004336 | 49 | 202 | 0.0 | 0.0 | 0.00 | 0.00 | 0.00 | 57 | 1007.4 |
| 20260504003831 | 49 | 202 | 0.0 | 0.0 | 0.00 | 0.00 | 0.00 | 56 | 1007.4 |
| 20260504003324 | 50 | 202 | 0.0 | 0.0 | 0.00 | 0.00 | 0.00 | 54 | 1007.3 |
| 20260504002819 | 50 | 202 | 0.0 | 0.0 | 0.00 | 0.00 | 0.00 | 53 | 1007.2 |
| 20260504002314 | 51 | 202 | 0.0 | 0.0 | 0.00 | 0.00 | 0.00 | 51 | 1007.1 |
| 20260504002036 | 52 | 202 | 0.0 | 0.0 | 0.00 | 0.00 | 0.00 | 50 | 1007.1 |
| 20260504001302 | 53 | 202 | 0.0 | 0.0 | 0.00 | 0.00 | 0.00 | 49 | 1007.0 |
| 20260504000754 | 53 | 202 | 0.0 | 0.0 | 0.00 | 0.00 | 0.00 | 47 | 1007.0 |
| 20260504000520 | 54 | 202 | 0.0 | 0.0 | 0.00 | 0.00 | 0.00 | 45 | 1006.9 |
| 20260503235743 | 55 | 202 | 0.0 | 0.0 | 0.00 | 0.00 | 0.00 | 43 | 1006.9 |
| 20260503235236 | 56 | 202 | 0.0 | 0.0 | 0.00 | 0.00 | 0.00 | 42 | 1006.9 |
| 20260503234730 | 57 | 138 | 0.0 | 0.0 | 0.00 | 0.00 | 0.00 | 40 | 1006.8 |
| 20260503234225 | 58 | 138 | 0.0 | 1.0 | 0.00 | 0.00 | 0.00 | 39 | 1006.8 |
| 20260503233719 | 58 | 138 | 0.0 | 1.0 | 0.00 | 0.00 | 0.00 | 37 | 1006.8 |
| 20260503233214 | 59 | 138 | 0.0 | 1.0 | 0.00 | 0.00 | 0.00 | 36 | 1006.7 |
| 20260503232706 | 60 | 202 | 0.0 | 3.0 | 0.00 | 0.00 | 0.00 | 35 | 1006.7 |
| 20260503232201 | 60 | 157 | 0.0 | 3.0 | 0.00 | 0.00 | 0.00 | 33 | 1006.7 |
| 20260503231655 | 61 | 148 | 0.0 | 3.0 | 0.00 | 0.00 | 0.00 | 33 | 1006.6 |
| 20260503231149 | 62 | 243 | 0.0 | 3.0 | 0.00 | 0.00 | 0.00 | 32 | 1006.6 |
| 20260503230644 | 62 | 146 | 0.0 | 4.0 | 0.00 | 0.00 | 0.00 | 33 | 1006.6 |
| 20260503230136 | 63 | 181 | 1.0 | 7.0 | 0.00 | 0.00 | 0.00 | 33 | 1006.7 |
| 20260503225631 | 63 | 219 | 1.0 | 7.0 | 0.00 | 0.00 | 0.00 | 33 | 1006.7 |
| 20260503225125 | 63 | 113 | 0.0 | 3.0 | 0.00 | 0.00 | 0.00 | 33 | 1006.7 |
| 20260503224619 | 63 | 63 | 0.0 | 3.0 | 0.00 | 0.00 | 0.00 | 32 | 1006.7 |
| 20260503224119 | 63 | 262 | 1.0 | 5.0 | 0.00 | 0.00 | 0.00 | 33 | 1006.7 |
| 20260503223619 | 63 | 63 | 2.0 | 8.0 | 0.00 | 0.00 | 0.00 | 32 | 1006.8 |
| 20260503223119 | 63 | 86 | 1.0 | 8.0 | 0.00 | 0.00 | 0.00 | 30 | 1006.7 |
| 20260503222841 | 63 | 262 | 1.0 | 6.0 | 0.00 | 0.00 | 0.00 | 33 | 1006.7 |
| 20260503222115 | 63 | 252 | 2.0 | 9.0 | 0.00 | 0.00 | 0.00 | 31 | 1006.7 |
| 20260503221836 | 63 | 247 | 3.0 | 9.0 | 0.00 | 0.00 | 0.00 | 30 | 1006.7 |
| 20260503221114 | 64 | 221 | 1.0 | 8.0 | 0.00 | 0.00 | 0.00 | 31 | 1006.7 |
| 20260503220614 | 64 | 264 | 1.0 | 8.0 | 0.00 | 0.00 | 0.00 | 32 | 1006.7 |
| 20260503220114 | 63 | 216 | 2.0 | 8.0 | 0.00 | 0.00 | 0.00 | 31 | 1006.8 |
| 20260503215836 | 64 | 118 | 2.0 | 12.0 | 0.00 | 0.00 | 0.00 | 30 | 1006.7 |
| 20260503215111 | 64 | 256 | 2.0 | 12.0 | 0.00 | 0.00 | 0.00 | 30 | 1006.7 |
| 20260503214611 | 64 | 198 | 2.0 | 10.0 | 0.00 | 0.00 | 0.00 | 32 | 1006.8 |
| 20260503214330 | 64 | 238 | 2.0 | 6.0 | 0.00 | 0.00 | 0.00 | 32 | 1006.8 |
| 20260503213609 | 64 | 282 | 2.0 | 10.0 | 0.00 | 0.00 | 0.00 | 31 | 1006.7 |
| 20260503213107 | 64 | 353 | 2.0 | 10.0 | 0.00 | 0.00 | 0.00 | 31 | 1006.7 |
| 20260503212605 | 64 | 215 | 2.0 | 6.0 | 0.00 | 0.00 | 0.00 | 31 | 1006.7 |
| 20260503212105 | 64 | 166 | 2.0 | 8.0 | 0.00 | 0.00 | 0.00 | 34 | 1006.7 |
| 20260503211607 | 64 | 32 | 2.0 | 10.0 | 0.00 | 0.00 | 0.00 | 31 | 1006.6 |
| 20260503211326 | 64 | 300 | 2.0 | 10.0 | 0.00 | 0.00 | 0.00 | 32 | 1006.7 |
| 20260503210559 | 63 | 163 | 2.0 | 10.0 | 0.00 | 0.00 | 0.00 | 32 | 1006.7 |
| 20260503210053 | 63 | 125 | 3.0 | 10.0 | 0.00 | 0.00 | 0.00 | 30 | 1006.7 |
| 20260503205547 | 64 | 19 | 3.0 | 10.0 | 0.00 | 0.00 | 0.00 | 32 | 1006.7 |
| 20260503205306 | 64 | 170 | 2.0 | 8.0 | 0.00 | 0.00 | 0.00 | 32 | 1006.8 |
| 20260503204536 | 64 | 219 | 2.0 | 8.0 | 0.00 | 0.00 | 0.00 | 32 | 1006.8 |
| 20260503204029 | 64 | 93 | 2.0 | 7.0 | 0.00 | 0.00 | 0.00 | 34 | 1006.8 |
| 20260503203523 | 64 | 168 | 2.0 | 8.0 | 0.00 | 0.00 | 0.00 | 34 | 1007.0 |
| 20260503203017 | 63 | 219 | 1.0 | 8.0 | 0.00 | 0.00 | 0.00 | 36 | 1006.9 |
| 20260503202511 | 63 | 131 | 1.0 | 8.0 | 0.00 | 0.00 | 0.00 | 36 | 1007.0 |
| 20260503202006 | 63 | 172 | 2.0 | 8.0 | 0.00 | 0.00 | 0.00 | 35 | 1007.0 |
| 20260503201500 | 62 | 288 | 2.0 | 9.0 | 0.00 | 0.00 | 0.00 | 37 | 1007.2 |
| 20260503200954 | 62 | 21 | 3.0 | 9.0 | 0.00 | 0.00 | 0.00 | 36 | 1007.2 |
| 20260503200448 | 63 | 51 | 3.0 | 11.0 | 0.00 | 0.00 | 0.00 | 39 | 1007.3 |
| 20260503195941 | 63 | 94 | 3.0 | 11.0 | 0.00 | 0.00 | 0.00 | 37 | 1007.5 |
| 20260503195437 | 63 | 67 | 2.0 | 10.0 | 0.00 | 0.00 | 0.00 | 34 | 1007.5 |
| 20260503194928 | 62 | 342 | 2.0 | 10.0 | 0.00 | 0.00 | 0.00 | 38 | 1007.5 |
| 20260503194423 | 62 | 81 | 2.0 | 7.0 | 0.00 | 0.00 | 0.00 | 41 | 1007.7 |
| 20260503194148 | 62 | 45 | 3.0 | 8.0 | 0.00 | 0.00 | 0.00 | 37 | 1007.5 |
| 20260503193411 | 62 | 239 | 2.0 | 8.0 | 0.00 | 0.00 | 0.00 | 37 | 1007.6 |
| 20260503193130 | 62 | 316 | 3.0 | 10.0 | 0.00 | 0.00 | 0.00 | 38 | 1007.7 |
| 20260503192624 | 61 | 50 | 3.0 | 10.0 | 0.00 | 0.00 | 0.00 | 36 | 1007.8 |
| 20260503192114 | 61 | 228 | 2.0 | 9.0 | 0.00 | 0.00 | 0.00 | 36 | 1007.8 |
| 20260503191347 | 61 | 51 | 1.0 | 5.0 | 0.00 | 0.00 | 0.00 | 37 | 1007.9 |
| 20260503190841 | 61 | 155 | 2.0 | 13.0 | 0.00 | 0.00 | 0.00 | 37 | 1007.9 |
| 20260503190336 | 61 | 95 | 3.0 | 13.0 | 0.00 | 0.00 | 0.00 | 37 | 1008.0 |
| 20260503185829 | 60 | 101 | 3.0 | 13.0 | 0.00 | 0.00 | 0.00 | 39 | 1008.1 |
| 20260503185323 | 60 | 201 | 3.0 | 13.0 | 0.00 | 0.00 | 0.00 | 35 | 1008.0 |
| 20260503184817 | 60 | 58 | 3.0 | 13.0 | 0.00 | 0.00 | 0.00 | 37 | 1008.2 |
| 20260503184311 | 60 | 270 | 3.0 | 9.0 | 0.00 | 0.00 | 0.00 | 40 | 1008.2 |
| 20260503183807 | 60 | 282 | 3.0 | 10.0 | 0.00 | 0.00 | 0.00 | 38 | 1008.4 |
| 20260503183259 | 60 | 64 | 3.0 | 10.0 | 0.00 | 0.00 | 0.00 | 39 | 1008.4 |
| 20260503182753 | 60 | 162 | 2.0 | 8.0 | 0.00 | 0.00 | 0.00 | 37 | 1008.4 |
| 20260503182246 | 60 | 345 | 3.0 | 11.0 | 0.00 | 0.00 | 0.00 | 40 | 1008.4 |
| 20260503181741 | 60 | 152 | 3.0 | 11.0 | 0.00 | 0.00 | 0.00 | 40 | 1008.5 |
| 20260503181236 | 60 | 293 | 2.0 | 10.0 | 0.00 | 0.00 | 0.00 | 44 | 1008.4 |
| 20260503180730 | 59 | 62 | 2.0 | 10.0 | 0.00 | 0.00 | 0.00 | 37 | 1008.4 |
| 20260503180231 | 59 | 99 | 2.0 | 11.0 | 0.00 | 0.00 | 0.00 | 40 | 1008.4 |
| 20260503175729 | 58 | 135 | 4.0 | 15.0 | 0.00 | 0.00 | 0.00 | 37 | 1008.4 |
| 20260503175229 | 58 | 203 | 3.0 | 15.0 | 0.00 | 0.00 | 0.00 | 40 | 1008.5 |
| 20260503174229 | 59 | 49 | 2.0 | 7.0 | 0.00 | 0.00 | 0.00 | 41 | 1008.6 |
| 20260503173728 | 58 | 25 | 2.0 | 8.0 | 0.00 | 0.00 | 0.00 | 44 | 1008.6 |
| 20260503172728 | 58 | 117 | 2.0 | 12.0 | 0.00 | 0.00 | 0.00 | 39 | 1008.4 |
| 20260503172229 | 58 | 257 | 3.0 | 11.0 | 0.00 | 0.00 | 0.00 | 43 | 1008.5 |
| 20260503171730 | 57 | 206 | 3.0 | 13.0 | 0.00 | 0.00 | 0.00 | 41 | 1008.6 |
| 20260503171227 | 57 | 207 | 3.0 | 13.0 | 0.00 | 0.00 | 0.00 | 44 | 1008.7 |
| 20260503170727 | 57 | 84 | 3.0 | 11.0 | 0.00 | 0.00 | 0.00 | 39 | 1008.8 |
| 20260503170446 | 57 | 323 | 1.0 | 8.0 | 0.00 | 0.00 | 0.00 | 42 | 1008.7 |
| 20260503150718 | 53 | 219 | 2.0 | 11.0 | 0.00 | 0.00 | 0.00 | 44 | 1009.2 |
| 20260503150220 | 53 | 162 | 2.0 | 10.0 | 0.00 | 0.00 | 0.00 | 47 | 1009.4 |
| 20260503140214 | 51 | 354 | 2.0 | 9.0 | 0.00 | 0.00 | 0.00 | 51 | 1009.5 |
| 20260503131156 | 48 | 115 | 2.0 | 7.0 | 0.00 | 0.00 | 0.00 | 57 | 1009.6 |
| 20260503130651 | 48 | 58 | 2.0 | 7.0 | 0.00 | 0.00 | 0.00 | 60 | 1009.6 |
| 20260503130144 | 48 | 241 | 2.0 | 8.0 | 0.00 | 0.00 | 0.00 | 59 | 1009.5 |
| 20260503110424 | 41 | 174 | 1.0 | 5.0 | 0.00 | 0.00 | 0.00 | 77 | 1008.5 |
| 20260503090159 | 41 | 293 | 0.0 | 3.0 | 0.00 | 0.00 | 0.00 | 78 | 1007.0 |
| 20260503081606 | 41 | 190 | 0.0 | 3.0 | 0.00 | 0.00 | 0.00 | 79 | 1006.7 |
| 20260503081100 | 41 | 255 | 0.0 | 1.0 | 0.00 | 0.00 | 0.00 | 79 | 1006.6 |
| 20260503080555 | 41 | 255 | 0.0 | 4.0 | 0.00 | 0.01 | 0.00 | 79 | 1006.7 |
| 20260503072506 | 40 | 237 | 0.0 | 2.0 | 0.00 | 0.01 | 0.00 | 80 | 1006.3 |
| 20260503072233 | 40 | 266 | 0.0 | 0.0 | 0.00 | 0.01 | 0.00 | 80 | 1006.2 |
| 20260503071454 | 40 | 266 | 0.0 | 2.0 | 0.00 | 0.01 | 0.00 | 80 | 1006.2 |
| 20260503071211 | 40 | 266 | 0.0 | 2.0 | 0.00 | 0.01 | 0.00 | 80 | 1006.1 |
| 20260503070442 | 40 | 279 | 0.0 | 3.0 | 0.00 | 0.01 | 0.00 | 81 | 1006.1 |
| 20260503054811 | 42 | 210 | 0.0 | 0.0 | 0.00 | 0.01 | 0.00 | 77 | 1006.0 |
| 20260503054306 | 42 | 210 | 0.0 | 0.0 | 0.00 | 0.01 | 0.00 | 75 | 1006.0 |
| 20260503053800 | 43 | 210 | 0.0 | 0.0 | 0.00 | 0.01 | 0.00 | 74 | 1005.9 |
| 20260503053517 | 43 | 210 | 0.0 | 1.0 | 0.00 | 0.01 | 0.00 | 74 | 1006.0 |
| 20260503052748 | 44 | 210 | 0.0 | 1.0 | 0.00 | 0.01 | 0.00 | 73 | 1006.0 |
| 20260503052241 | 44 | 244 | 0.0 | 1.0 | 0.00 | 0.01 | 0.00 | 72 | 1005.9 |
| 20260503051735 | 44 | 244 | 0.0 | 1.0 | 0.00 | 0.01 | 0.00 | 71 | 1006.0 |
| 20260503051232 | 44 | 101 | 0.0 | 1.0 | 0.00 | 0.01 | 0.00 | 70 | 1005.9 |
| 20260503050732 | 45 | 154 | 0.0 | 1.0 | 0.00 | 0.01 | 0.00 | 69 | 1005.9 |
| 20260503050457 | 45 | 144 | 0.0 | 1.0 | 0.00 | 0.01 | 0.00 | 69 | 1006.0 |
| 20260503045232 | 45 | 72 | 0.0 | 1.0 | 0.00 | 0.01 | 0.00 | 69 | 1006.1 |
| 20260503044949 | 46 | 134 | 0.0 | 2.0 | 0.00 | 0.01 | 0.00 | 68 | 1006.1 |
| 20260503044228 | 46 | 125 | 0.0 | 2.0 | 0.00 | 0.01 | 0.00 | 68 | 1006.1 |
| 20260503043728 | 46 | 120 | 0.0 | 2.0 | 0.00 | 0.01 | 0.00 | 68 | 1006.2 |
| 20260503043446 | 46 | 152 | 0.0 | 2.0 | 0.00 | 0.01 | 0.00 | 68 | 1006.1 |
| 20260503042945 | 46 | 123 | 0.0 | 2.0 | 0.00 | 0.01 | 0.00 | 67 | 1006.2 |
| 20260503042226 | 46 | 110 | 0.0 | 1.0 | 0.00 | 0.01 | 0.00 | 67 | 1006.2 |
| 20260503041726 | 46 | 93 | 0.0 | 4.0 | 0.00 | 0.01 | 0.00 | 67 | 1006.2 |
| 20260503041224 | 46 | 247 | 0.0 | 4.0 | 0.00 | 0.01 | 0.00 | 67 | 1006.2 |
| 20260503040725 | 46 | 21 | 0.0 | 3.0 | 0.00 | 0.01 | 0.00 | 66 | 1006.1 |
| 20260503040224 | 47 | 276 | 0.0 | 3.0 | 0.00 | 0.01 | 0.00 | 66 | 1006.1 |
| 20260503035947 | 47 | 128 | 0.0 | 3.0 | 0.00 | 0.01 | 0.01 | 65 | 1006.1 |
| 20260503035450 | 47 | 126 | 0.0 | 1.0 | 0.00 | 0.01 | 0.01 | 65 | 1006.0 |
| 20260503034717 | 47 | 229 | 0.0 | 0.0 | 0.00 | 0.01 | 0.01 | 64 | 1006.0 |
| 20260503034215 | 48 | 229 | 0.0 | 2.0 | 0.00 | 0.01 | 0.01 | 63 | 1006.0 |
| 20260503033718 | 48 | 229 | 0.0 | 3.0 | 0.00 | 0.01 | 0.01 | 63 | 1006.0 |
| 20260503033212 | 48 | 309 | 0.0 | 3.0 | 0.00 | 0.01 | 0.01 | 63 | 1006.0 |
| 20260503032707 | 48 | 158 | 0.0 | 3.0 | 0.00 | 0.01 | 0.01 | 63 | 1006.0 |
| 20260503032200 | 48 | 290 | 0.0 | 3.0 | 0.00 | 0.01 | 0.01 | 63 | 1006.0 |
| 20260503031653 | 48 | 220 | 0.0 | 2.0 | 0.00 | 0.01 | 0.01 | 63 | 1005.9 |
| 20260503031148 | 49 | 205 | 0.0 | 1.0 | 0.00 | 0.01 | 0.01 | 63 | 1005.9 |
| 20260503030641 | 49 | 294 | 0.0 | 2.0 | 0.00 | 0.01 | 0.01 | 63 | 1005.9 |
| 20260503030137 | 49 | 294 | 0.0 | 2.0 | 0.00 | 0.01 | 0.01 | 62 | 1005.9 |
| 20260503025856 | 49 | 113 | 0.0 | 0.0 | 0.00 | 0.01 | 0.01 | 63 | 1005.9 |
| 20260503025357 | 49 | 148 | 0.0 | 0.0 | 0.00 | 0.01 | 0.01 | 63 | 1006.0 |
| 20260503024617 | 49 | 127 | 0.0 | 2.0 | 0.00 | 0.01 | 0.01 | 63 | 1005.9 |